Location: Woodstock
(43.1330°N, 80.7500°W)
Time: 15:18:12
(UTC-04:00)

Daily predictions for brighter satellites

Satellite Brightness Start Highest point End
(mag) Time Altitude Azimuth Time Altitude Azimuth Time Altitude Azimuth
CZ-3B R/B 4.2 21:33:14 10° SSW 21:36:02 41° ESE 21:44:14 10° NE
Cosmos 2100 Rocket 4.1 21:32:11 10° N 21:38:30 68° E 21:44:50 10° SSE
ERBS 3.1 21:38:12 10° NW 21:41:28 43° NE 21:44:43 10° ESE
H-2A R/B 3.6 21:37:50 10° ESE 21:42:02 24° ENE 21:46:18 10° NNE
GPS 2-05 Rocket1 4.5 21:41:08 10° SSW 21:42:54 14° SSE 21:44:40 10° SE
Cosmos 1076 Rocket 3.5 21:38:50 10° S 21:43:09 67° E 21:47:30 10° NNE
Cosmos 2173 Rocket 4.1 21:38:54 10° N 21:45:05 70° E 21:51:18 10° SSE
Lacrosse 5 1.9 21:41:31 10° NW 21:46:38 83° NE 21:51:41 10° SE
Cosmos 1818 4.4 21:41:39 10° NW 21:46:52 47° WSW 21:52:01 10° S
SPOT 5 3.9 21:45:29 10° SE 21:49:55 35° ENE 21:54:34 10° N
Cosmos 2061 Rocket 4.1 21:45:27 10° N 21:51:51 73° E 21:58:16 10° SSE
NOAA 11 4.3 21:48:21 10° SSE 21:53:40 62° ENE 21:59:02 10° N
Abrixas rocket 2.3 21:50:44 10° WNW 21:53:59 75° NNE 21:57:13 10° ESE
Cosmos 1408 Rocket 3.6 21:51:34 10° S 21:55:46 57° E 22:00:02 10° NNE
YAOGAN 6 3.0 21:53:36 10° S 21:57:14 67° W 22:00:56 10° NNW
Cosmos 2221 3.4 21:54:24 10° NNW 21:58:41 52° W 22:02:56 10° S
MetOp-B 4.3 21:53:48 10° SSE 21:59:02 59° ENE 22:04:18 10° N
BREEZE-M DEB (TANK) 3.3 21:58:17 10° WNW 22:00:11 34° N 22:03:53 10° ENE
Cosmos 2227 4.2 21:56:34 10° SSW 22:02:17 78° ESE 22:08:00 10° NNE
Envisat 4.3 21:57:37 10° SSW 22:02:20 38° W 22:07:04 10° NNW
Cosmos 1626 4.2 22:03:26 10° ESE 22:05:05 13° E 22:06:53 10° ENE
Meteor 1-29 3.6 22:02:01 10° N 22:05:25 58° WNW 22:08:48 10° SSW
Cosmos 1814 Rocket 4.2 22:01:26 10° NNW 22:06:45 61° ENE 22:11:33 12° SSE
Cosmos 1726 2.2 22:03:47 10° N 22:07:26 58° E 22:10:46 12° SSE
Cosmos 1725 Rocket 4.2 22:04:14 10° N 22:10:23 56° ENE 22:16:09 11° SSE
Cosmos 1763 Rocket 3.8 22:07:14 10° NNW 22:12:15 53° ENE 22:16:28 14° SE
Cosmos 841 Rocket 4.1 22:07:24 10° N 22:12:25 43° ENE 22:16:35 14° SE
Terra 3.4 22:11:39 11° ESE 22:15:04 21° ENE 22:18:37 10° NNE
Cosmos 332 Rocket 3.8 22:10:17 10° NNW 22:15:13 86° ENE 22:19:41 13° SSE
Cosmos 1802 Rocket 4.1 22:09:22 10° N 22:15:32 81° W 22:21:41 10° S
Tiangong 1 0.7 22:13:36 10° W 22:16:24 70° S 22:18:28 16° ESE
Cosmos 1500 Rocket 4.3 22:13:36 13° SSE 22:17:11 35° E 22:21:14 10° NNE
Cosmos 2263 Rocket 2.7 22:12:34 10° S 22:17:36 37° ESE 22:22:42 10° NE
ATLAS 5 CENTAUR R/B 3.8 22:13:31 10° WSW 22:17:49 33° NW 22:22:31 10° NNE
Cosmos 1486 Rocket 4.3 22:12:54 10° S 22:17:56 49° ESE 22:23:03 10° NNE
Helios 1B rocket 4.0 22:14:50 10° N 22:18:41 38° WNW 22:22:31 10° SW
Abrixas 2.5 22:19:01 10° SW 22:21:35 40° SSE 22:24:09 10° ENE
Cosmos 1300 2.7 22:19:25 10° N 22:23:15 71° E 22:26:18 15° SSE
USA 234 3.5 22:28:01 10° ENE 22:34:17 46° SE 22:40:30 10° SSW
Cosmos 1766 Rocket 4.5 22:30:58 10° SSW 22:35:10 49° WNW 22:39:24 10° N
Cosmos 2016 Rocket 4.3 22:30:19 10° NNW 22:36:31 67° W 22:42:36 10° S
Cosmos 1328 Rocket 3.5 22:32:16 10° N 22:36:37 85° W 22:40:04 16° S
Cosmos 1151 Rocket 3.3 22:32:28 10° N 22:36:47 53° E 22:39:31 21° SSE
SPOT 1/Viking Rocket 3.6 22:33:05 17° SSE 22:37:03 70° ENE 22:42:12 10° N
SL-14 R/B 3.3 22:36:19 10° S 22:40:16 81° W 22:44:13 10° N
Cosmos 1515 Rocket 3.5 22:40:40 10° N 22:45:02 85° E 22:48:00 20° S
CZ-4C R/B 3.4 22:46:15 19° ESE 22:47:09 20° ESE 22:51:08 10° ENE
ERS-1 Rocket 4.1 22:42:32 10° SSW 22:47:13 39° W 22:51:56 10° NNW
H-2A R/B 3.1 22:47:34 20° ESE 22:49:41 31° ENE 22:53:24 10° N
EO 1 Delta rocket 3.8 22:47:12 17° S 22:50:44 83° W 22:55:28 10° N
Cosmos 1844 Rocket 4.4 22:50:06 14° ESE 22:50:46 14° E 22:53:38 10° ENE
Cosmos 1743 Rocket 3.7 22:46:33 10° SSW 22:50:52 74° W 22:55:12 10° N
USA 245 3.9 22:48:40 17° S 22:51:17 55° W 22:55:43 10° NNW
ARGOS 3.6 22:46:39 13° S 22:51:25 61° W 22:56:47 10° NNW
RESURS DK-1 4.0 22:47:55 10° NW 22:51:31 28° WSW 22:54:38 12° SSW
Cosmos 2058 3.0 22:50:47 22° S 22:53:23 63° E 22:57:34 10° NNE
Cosmos 1328 4.4 22:49:52 10° SSW 22:53:50 57° W 22:57:50 10° N
Cosmos 1455 3.0 22:52:22 10° N 22:55:58 36° ENE 22:57:20 27° ESE
Meteor 2-12 Rocket 4.4 22:53:37 10° N 22:59:42 71° E 23:03:35 23° SSE
Cosmos 2233 Rocket 3.9 22:53:36 10° N 22:59:50 83° E 23:04:08 21° S
Nimbus 7 Rocket 4.4 22:56:37 10° NNE 23:02:40 88° WNW 23:08:37 10° SSW
Cosmos 2228 Rocket 3.9 22:59:21 10° NNW 23:03:47 48° W 23:07:15 15° SSW
Cosmos 371 Rocket 4.3 22:59:29 10° NW 23:03:59 40° WSW 23:07:23 16° SSW
Cosmos 1943 3.4 22:58:27 10° NNW 23:04:03 65° WSW 23:07:41 22° S
Cosmos 1503 Rocket 3.9 23:00:28 17° S 23:04:26 65° ESE 23:09:33 10° NNE
Cosmos 540 Rocket 3.7 23:00:44 10° NNW 23:05:51 59° ENE 23:08:29 27° SE
SME Rocket 4.5 23:11:22 21° ESE 23:13:07 29° ENE 23:17:22 10° N
ERBS 4.2 23:15:27 10° W 23:17:53 18° SW 23:18:29 18° SW
H-2A R/B 2.8 23:17:23 19° SSW 23:21:04 50° W 23:26:23 10° NNW
CZ-2C R/B 4.5 23:18:53 10° ENE 23:21:30 14° E 23:22:08 13° E
Cosmos 1869 3.9 23:21:01 10° N 23:24:46 40° ENE 23:25:35 35° ESE
SPOT 5 4.5 23:24:13 12° SSW 23:27:59 29° W 23:32:26 10° NW
Lacrosse 5 3.8 23:25:44 10° W 23:29:00 17° WSW 23:31:05 14° SSW
Sich 1 3.5 23:28:52 37° ESE 23:29:39 41° E 23:33:41 10° NNE
Abrixas rocket 4.2 23:28:04 10° W 23:29:56 18° SW 23:29:56 18° SW
Cosmos 2151 4.1 23:27:50 14° SW 23:31:11 42° WNW 23:35:18 10° N
Cosmos 1400 Rocket 4.3 23:38:32 24° E 23:38:33 24° E 23:41:53 10° NE
Cosmos 1626 3.3 23:38:04 21° SW 23:40:03 39° WNW 23:43:35 10° N
CZ-4C R/B 4.0 23:40:17 39° ESE 23:41:26 51° ENE 23:45:44 10° N
SL-19 R/B 4.2 23:36:02 10° NNE 23:41:27 88° ESE 23:44:39 27° SSW
Cosmos 1703 4.3 23:39:14 21° SW 23:41:30 42° WNW 23:45:19 10° N
Cosmos 1707 Rocket 3.5 23:42:36 10° N 23:47:06 84° E 23:48:18 49° SSE
deb Chang Zheng 4 3.5 23:43:18 10° NNE 23:47:42 86° WNW 23:49:17 40° SSW
Cosmos 2278 Rocket 3.7 23:51:08 19° E 23:51:14 19° E 23:55:03 10° ENE
Tiangong 1 3.7 23:49:28 10° W 23:49:35 11° WSW 23:49:35 11° WSW
Terra 2.5 23:50:32 29° SSW 23:52:30 45° W 23:57:05 10° NNW
ALOS 2 4.2 23:52:39 20° E 23:53:52 23° ENE 23:57:18 10° NNE
Abrixas 3.8 23:53:50 10° W 23:56:23 35° NNW 23:57:27 24° NNE
